User: anonymous   Login
Location: Dob?e?
(49.9411°N, 15.1496°E)
Time: 10:44:31
(UTC+00:00)
Language:

GEOS 3 Rocket - Orbit

View from above orbital plane
View from above orbital plane
View from above satellite
View from above satellite

Ground track
Ground track

The orbit data is extracted from the following two-line orbital elements,

1 07735U 75027B   21131.92167041 -.00000146  00000-0  13697-4 0  9993
2 07735 114.9731 175.3412 0048455 224.0806 135.6406 14.24637301393114
Epoch (UTC): 11 May 2021 22:07:12
Eccentricity: 0.0048455
inclination: 114.9731°
perigee height: 775 km
apogee height: 844 km
right ascension of ascending node: 175.3412°
argument of perigee: 224.0806°
revolutions per day: 14.24637301
mean anomaly at epoch: 135.6406°
orbit number at epoch: 39311

The dashed part of the orbit path shows where the satellite is in the earth's shadow,  

DLR